Погода в Игарке

Погода в Игарке : погода сейчас, прогноз погоды и архив. Всё, что Вы хотите узнать о погоде в Игарке!

Поиск расширенной информации на нашем сайте:

Другие новости

Новости СМИ2

Главная страница сайта

Новости сайта

03.07.2017

Напоминаем, что на нашем специализированном сайте Метеоцентр.Азия вы можете получить высокодетализированные автоматические прогнозы погоды по пунктам России, СНГ и мира в авиационном формате (включающие направление и скорость ветра, видимость, явления погоды, количество и форму облачности, нижнюю и верхнюю границу облачности).

Рекомендуем: Доставка канапе и фуршетных блюд по Москве catering.su.

Погода в Игарке - сегодня

Время (UTC), дата Ветер
(°,м/с) 
Видим.   Явления Облачность Т
(°С)
Тd
(°С)
f(%) Тe
(°С)
Pmin
(гПа)
dP
(гПа)
Po
(мм)
O2
(г/м3)
Тmin Tmax R s Состояние
почвы
06 18.07.17 190 (Ю) 20000 м    4/1 600 м кучево-дожд., средняя, верхняя 
[Cb cap|Ac cuf|Ci ing]
+24.2 +14.9 56 +32  1016.1  -0.5  760  278           
09 18.07.17 270 (З) 20000 м    9/4 600 м кучево-дожд., средняя 
[Cb cap|Ac cuf]
+26.3 +11.7 40 +30  1015.5  -0.6  759  277           
12 18.07.17 310 (СЗ) 20000 м    8/3 600 м кучево-дожд., средняя 
[Cb cap|Ac cuf]
+25.6 +12.3 44 +30  1015  -0.5  759  277    +27.5       
15 18.07.17 350 (С) 20000 м    3/0 средняя 
[Ac trans]
+22.5 +16.6 69 +34  1014.9  -0.1  759  279           
18 18.07.17 330 (СЗ) 10 км  дымка  3/0 средняя 
[Ac trans]
+17.8 +13.6 76 +25  1015.4  0.4  759  284           
21 18.07.17 360 (С) 10 км  дымка  1/0 верхняя 
[Ci fib]
+15.7 +11.6 77 +19  1015.9  0.4  759  287           
00 19.07.17 тихо ()   10 км  дымка  ясно 
+17.1 +13.8 81 +23  1015.8  759  285  +13.8         
03 19.07.17 340 (С) 20000 м    ясно 
+23.6 +12.9 51 +29  1015.5  -0.3  759  279           
06 19.07.17 020 (С) 20000 м    3/0 верхняя 
[Ci fib]
+25.3 +11.6 42 +28  1014.5  -1  758  278           
09 19.07.17 040 (СВ) 20000 м    8/0 верхняя 
[Ci fib]
+27.2 +12.5 40 +32  1013.8  -0.7  758  275           
12 19.07.17 070 (В) 20000 м    9/0 верхняя 
[Ci fib]
+26.9 +12.5 41 +31  1013.1  -0.7  757  275    +27.7       
15 19.07.17 350 (С) 20000 м    6/0 средняя, верхняя 
[Ac trans|Ci fib]
+21.4 +14.8 66 +29  1012.9  -0.2  757  280           
18 19.07.17 010 (С) 20000 м    6/0 средняя, верхняя 
[Ac trans|Ci fib]
+19.5 +13 66 +26  1013.7  0.7  758  282           
21 19.07.17 360 (С) 20000 м  {снег}  8/0 верхняя 
[Ci fib]
+17.6 +12.4 72 +22  1014  0.3  758  284           
00 20.07.17 350 (С) 20000 м    6/0 верхняя 
[Ci fib]
+19 +14.5 75 +28  1014.2  0.2  758  283  +15.8         
03 20.07.17 360 (С) 20000 м    3/0 верхняя 
[Ci fib]
+23 +13.6 55 +29  1014  -0.1  758  279           
06 20.07.17 010 (С) 20000 м    6/0 верхняя 
[Ci fib]
+25.6 +14.6 51 +33  1013.8  -0.2  758  276           
09 20.07.17 360 (С) 20000 м    4/1 600 м кучево-дожд., верхняя 
[Cb cap|Ci fib]
+26.6 +12.1 41 +30  1013.8  758  276           
12 20.07.17 340 (С) 20000 м    3/1 600 м кучево-дожд., верхняя 
[Cb cap|Ci fib]
+26 +10 37 +27  1013.9  0.1  758  277    +28       
15 20.07.17 340 (С) 20000 м    1/0 верхняя 
[Ci fib]
+21.7 +11.1 51 +24  1014.5  0.6  758  281           
18 20.07.17 350 (С) 20000 м    3/0 верхняя 
[Ci fib]
+16.9 +8.8 59 +17  1015.3  0.7  759  287           
21 20.07.17 080 (В) 20000 м    3/0 верхняя 
[Ci fib]
+11.7 +9.3 85 +13  1016.4  760  292           
00 21.07.17 120 (ЮВ) 20000 м    6/0 верхняя 
[Ci fib]
+18.1 +13.3 74 +26  1017.3  761  285  +10.6         
03 21.07.17 170 (Ю) 20000 м    4/0 верхняя 
[Ci fib]
+22.9 +15.4 63 +32  1017.6  0.4  761  280           
06 21.07.17 160 (Ю) 20000 м    3/0 верхняя 
[Ci fib]
+25.7 +15.3 53 +34  1017.9  0.3  761  277           
Время (UTC), дата Ветер
(°,м/с) 
Видим.   Явления Облачность Т
(°С)
Тd
(°С)
f(%) Тe
(°С)
Pmin
(гПа)
dP
(гПа)
Po
(мм)
O2
(г/м3)
Тmin Tmax R s Состояние
почвы

Для получения пояснительной информации подведите курсор к названию столбца.

ПОГОДА в Игарке - архив

Всё, что Вы хотите узнать о погоде в Игарке - удобно и подробно!

Выберите нужную дату (начиная с 1 января 2015* года) и нажмите кнопку "Найти".
Будут отображены архивные сводки погоды по пункту Игарка, начиная с указанной даты.


Отображать данные в формате CSV (для использования в таблицах Excel)


Внимание! Наш архив погоды предназначен исключительно для личного некоммерческого использования в познавательных целях. Если Вам необходимы официальные справки о состоянии погоды (для производственных, юридических, коммерческих и т.п. целей), обращайтесь в органы Росгидромета.

*Примечание: данная дата относится к архиву по метеостанциям СССР (Россия, СНГ, Балтия).
Архив по метеостанциям Зарубежной Европы и Азии (кроме Китая) хранится 10 дней, по другим регионам земного шара (Китай, Африка, Америка, Австралия, Океания) - 1 день.

Игарка - район местоположения метеостанции


Название, широта, долгота, высота метеостанции:
Игарка 67.5°ш. 86.4°д. 25 м над ур. моря [Российская Федерация]

Дополнительная информация

В oтличие oт бoльшинства пoгoдных сайтoв мы публикуем пoдрoбную метеoинфoрмацию в детальнoм прoфессиoнальнoм фoрмате.

Характеристики температуры и влажнoсти вoздуха измеряются на высoте 2 м в тени вдали oт зданий и деревьев.
Скoрoсть ветра измеряется на высoте 10 м (на урoвне рoста челoвека скoрoсть ветра ниже в 1.5-2 раза). Если метеoстанция нахoдится в гoрoде или в лесу, тo скoрoсть ветра занижена на 2-4 м/с пo сравнению с oткрытым местoм. Скoрoсть ветра над акватoриями крупных рек и oзёр, а также на вершинах хoлмoв на 2-5 м/с выше, чем в oбычных услoвиях.
Атмoсфернoе давление в разных тoчках местнoсти мoжет значительнo oтличаться oт давления на метеoстанции, в зависимoсти oт услoвий рельефа (при пoдъёме на 10 м давление пoнижается примернo на 1 мм рт.ст.).